[[{"header":{"parameterUnit":"m.s-1","parameterCategory":2,"la1":30.2991,"la2":30.254,"lo1":-89.0895,"lo2":-89.0444,"dy":0.0017,"dx":0.0017,"nx":28,"ny":28,"refTime":"2023-10-29T21:00:00:Z","depth":"0","parameterNumber":2,"parameterNumberName":"U-component_of_CURRENTS"},"data":[0,0,0,0,0,0,0,0,0,0,0,0,0,0,0,0,0,0,0,0,0,0,0,0,0,0,0,0,0,0,0,0,0,0,0,0,0,0,0,0,0,0,0,0,0,0,0,0,0,0,0,0,0,0,0,0,0,0,-0.2078,-0.2079,0,-0.2143,-0.2144,-0.2144,-0.2132,-0.2131,-0.213,-0.2129,-0.2193,-0.2196,-0.2198,0,0,0,0,0,0,0,0,0,0,0,0,0,-0.1977,-0.1978,-0.2078,-0.2079,-0.208,-0.2143,-0.2144,-0.2145,-0.2132,-0.2131,-0.213,-0.2129,-0.2192,-0.2195,-0.2199,0,0,0,0,0,0,0,0,0,0,0,0,0,-0.2027,-0.1979,-0.2077,-0.2083,-0.2084,-0.2143,-0.2144,-0.2145,-0.2132,-0.2131,-0.2129,-0.2128,-0.2191,-0.2195,-0.2199,-0.2251,0,0,-0.2211,-0.2212,0,0,0,0,0,0,0,0,-0.2024,-0.203,-0.2081,-0.2083,-0.2084,-0.213,-0.2132,-0.2181,-0.2133,-0.2111,-0.2129,-0.2127,-0.2175,-0.218,-0.2192,-0.2254,-0.2257,-0.2211,-0.2214,-0.2215,-0.2216,0,0,0,0,0,0,0,-0.2021,-0.2028,-0.2101,-0.2082,-0.2084,-0.2095,-0.21,-0.2141,-0.2148,-0.2113,-0.2113,-0.2125,-0.2175,-0.2188,-0.2193,-0.2258,-0.2211,-0.2215,-0.2217,-0.2218,-0.2455,-0.2459,0,0,0,0,0,0,-0.2018,-0.2024,-0.2099,-0.2103,-0.2053,-0.2098,-0.2103,-0.2115,-0.2148,-0.2152,-0.2126,-0.2124,-0.2182,-0.2189,-0.2195,-0.2267,-0.2215,-0.2219,-0.2221,-0.2452,-0.2456,-0.2461,0,0,0,0,0,0,-0.2015,-0.2024,-0.2096,-0.2067,-0.2077,-0.2101,-0.2114,-0.2117,-0.2121,-0.2158,-0.2162,-0.2127,-0.2181,-0.219,-0.2265,-0.2269,-0.2221,-0.2224,-0.2447,-0.2453,-0.2459,-0.2405,0,0,0,0,0,0,-0.2012,-0.2022,-0.2019,-0.2067,-0.2079,-0.2148,-0.2116,-0.2119,-0.2133,-0.213,-0.2161,-0.2165,-0.2181,-0.2259,-0.2269,-0.2273,-0.2227,-0.2442,-0.245,-0.2457,-0.2402,-0.2408,-0.2414,0,0,0,0,0,-0.2008,-0.2023,-0.2019,-0.2027,-0.2077,-0.215,-0.2158,-0.2167,-0.2134,-0.2159,-0.2189,-0.2164,-0.2313,-0.2266,-0.2276,-0.2281,-0.2438,-0.2447,-0.2456,-0.2399,-0.2407,-0.2414,0,0,0,0,0,0,-0.1978,-0.2025,-0.2021,-0.2047,-0.2099,-0.2149,-0.2161,-0.2166,-0.2205,-0.2192,-0.221,-0.2221,-0.23,-0.232,-0.2267,-0.2386,-0.2374,-0.2385,-0.2327,-0.2335,-0.2341,-0.2296,-0.223,0,0,0,0,0,-0.197,-0.1987,-0.2046,-0.2064,-0.2087,-0.2118,-0.2139,-0.2154,-0.2199,-0.2211,-0.2239,-0.2284,-0.2349,-0.2361,-0.2434,-0.2479,-0.2432,-0.2501,-0.2507,-0.2511,-0.2492,-0.2444,-0.244,-0.249,-0.249,-0.249,0,0,-0.1958,-0.1988,-0.1993,-0.2057,-0.2083,-0.2141,-0.2126,-0.2168,-0.2203,-0.2216,-0.2265,-0.2317,-0.238,-0.245,-0.2482,-0.2452,-0.2474,-0.2522,-0.2524,-0.2502,-0.2452,-0.2446,-0.244,-0.2496,-0.2495,-0.2494,0,0,-0.1975,-0.1974,-0.2008,-0.2058,-0.2115,-0.2144,-0.2156,-0.2217,-0.2224,-0.2291,-0.2321,-0.2374,-0.2457,-0.2497,-0.2527,-0.2616,-0.253,-0.2645,-0.2597,-0.2552,-0.2544,-0.2536,-0.2441,-0.2425,-0.2617,-0.2617,-0.2617,0,-0.1955,-0.2005,-0.2032,-0.2093,-0.2114,-0.2146,-0.2191,-0.2229,-0.2306,-0.2281,-0.2308,-0.2389,-0.2476,-0.25,-0.257,-0.2618,-0.2554,-0.2543,-0.2546,-0.2539,-0.2532,-0.2436,-0.2419,-0.2615,-0.2615,-0.2616,-0.2616,0,-0.2015,-0.2053,-0.2079,-0.2151,-0.2184,-0.2229,-0.2283,-0.2301,-0.2298,-0.2304,-0.2321,-0.2417,-0.2443,-0.2501,-0.2577,-0.2579,-0.2536,-0.2569,-0.2494,-0.2521,-0.2422,-0.2405,-0.2613,-0.2614,-0.2614,-0.2614,0,0,-0.1955,-0.2092,-0.2093,-0.2116,-0.2206,-0.2228,-0.2272,-0.2283,-0.2242,-0.2296,-0.2228,-0.2387,-0.2374,-0.2417,-0.2482,-0.2468,-0.2422,-0.2502,-0.2501,-0.2346,-0.2254,-0.2231,-0.221,-0.2424,-0.2422,-0.242,-0.2189,0,-0.198,-0.2088,-0.214,-0.2196,-0.2242,-0.2258,-0.2279,-0.2281,-0.2268,-0.2227,-0.2236,-0.2248,-0.2356,-0.2361,-0.2368,-0.2424,-0.2381,-0.2478,-0.2306,-0.23,-0.2225,-0.2193,-0.214,-0.1931,-0.2172,-0.217,-0.2168,0,-0.1997,-0.2067,-0.2146,-0.2179,-0.2187,-0.2224,-0.2164,-0.2195,-0.2148,-0.2123,-0.2078,-0.2087,-0.2101,-0.22,-0.2173,-0.2214,-0.2248,-0.2261,-0.2252,-0.2234,-0.2247,-0.1959,-0.1891,-0.1901,-0.2141,-0.2143,-0.2145,0,-0.1915,-0.2029,-0.2073,-0.2105,-0.2184,-0.2166,-0.2175,-0.2142,-0.2101,-0.2049,-0.1986,-0.1953,-0.1954,-0.1948,-0.204,-0.2086,-0.1971,-0.2028,-0.1997,-0.1992,-0.1918,-0.1912,-0.1789,-0.1988,-0.1988,-0.1989,-0.199,0,-0.1896,-0.1911,-0.2042,-0.2071,-0.2044,-0.2113,-0.2033,-0.2036,-0.1989,-0.1915,-0.1935,-0.1869,-0.1904,-0.1858,-0.1922,-0.1884,-0.1863,-0.1956,-0.1931,-0.1903,-0.1899,-0.1886,-0.1932,-0.198,-0.1982,-0.1984,-0.1985,0,-0.1786,-0.1894,-0.1935,-0.2021,-0.2022,-0.1998,-0.1959,-0.1889,-0.1896,-0.1801,-0.1781,-0.177,-0.1727,-0.1717,-0.1711,-0.1739,-0.1682,-0.1717,-0.1662,-0.1637,-0.1624,-0.167,-0.1507,-0.1465,-0.1582,-0.158,-0.1579,0,-0.1737,-0.177,-0.1864,-0.1854,-0.189,-0.1861,-0.1808,-0.1826,-0.1776,-0.1742,-0.1692,-0.164,-0.1596,-0.1514,-0.154,-0.1494,-0.1589,-0.1445,-0.1571,-0.1578,-0.161,-0.165,-0.163,-0.1424,-0.1421,-0.1419,-0.1417,0,-0.1616,-0.1665,-0.1704,-0.1708,-0.1684,-0.1639,-0.1613,-0.1582,-0.16,-0.1551,-0.1515,-0.1479,-0.1431,-0.1387,-0.1367,-0.136,-0.141,-0.1398,-0.1416,-0.1476,-0.1497,-0.1459,-0.1595,-0.1397,-0.1399,-0.1401,-0.1402,-0.1403,-0.1478,-0.1477,-0.1533,-0.1511,-0.1478,-0.1445,-0.1376,-0.1378,-0.1328,-0.1277,-0.1355,-0.1288,-0.1312,-0.1279,-0.1258,-0.1225,-0.128,-0.1237,-0.1279,-0.1307,-0.1318,-0.1398,-0.1196,-0.1197,-0.1198,-0.1199,-0.1199,0,-0.1289,-0.131,-0.1303,-0.1296,-0.121,-0.1258,-0.1222,-0.1146,-0.1082,-0.1096,-0.1064,-0.1134,-0.1125,-0.1155,-0.1173,-0.1136,-0.112,-0.1115,-0.116,-0.1137,-0.1187,-0.1239,-0.1027,-0.1027,-0.1027,-0.1027,-0.1027,-0.1027,-0.1192,-0.1134,-0.1166,-0.1027,-0.1008,-0.0875,-0.0851,-0.0797,-0.0779,-0.075,-0.0785,-0.0846,-0.1009,-0.1203,-0.1192,-0.1131,-0.1124,-0.1076,-0.1097,-0.117,-0.1186,-0.1201,-0.1258,-0.1054,-0.1054,-0.1001,-0.1001,-0.1001]},{"header":{"parameterUnit":"m.s-1","parameterCategory":2,"la1":30.2991,"la2":30.254,"lo1":-89.0895,"lo2":-89.0444,"dy":0.0017,"dx":0.0017,"nx":28,"ny":28,"refTime":"2023-10-29T21:00:00:Z","depth":"0","parameterNumber":3,"parameterNumberName":"V-component_of_CURRENTS"},"data":[0,0,0,0,0,0,0,0,0,0,0,0,0,0,0,0,0,0,0,0,0,0,0,0,0,0,0,0,0,0,0,0,0,0,0,0,0,0,0,0,0,0,0,0,0,0,0,0,0,0,0,0,0,0,0,0,0,0,-0.0018,-0.0017,0,0.0133,0.0135,0.0136,0.0227,0.0227,0.0227,0.0227,0.0462,0.0468,0.0474,0,0,0,0,0,0,0,0,0,0,0,0,0,-0.0099,-0.0099,-0.0018,-0.0017,-0.0015,0.0132,0.0135,0.0137,0.0227,0.0227,0.0227,0.0227,0.046,0.0467,0.0475,0,0,0,0,0,0,0,0,0,0,0,0,0,-0.0016,-0.0099,-0.0019,0.0045,0.0052,0.0132,0.0135,0.0138,0.0227,0.0227,0.0227,0.0227,0.0458,0.0466,0.0476,0.0528,0,0,0.0504,0.0508,0,0,0,0,0,0,0,0,-0.0021,-0.0012,0.0034,0.0041,0.0049,0.0159,0.0192,0.0271,0.0227,0.0164,0.0227,0.0227,0.0366,0.0383,0.0414,0.0539,0.0549,0.0504,0.051,0.0514,0.0516,0,0,0,0,0,0,0,-0.0027,-0.0018,0.0045,0.0036,0.0045,0.011,0.0122,0.0208,0.0266,0.0169,0.0175,0.0187,0.0371,0.0405,0.042,0.0552,0.0504,0.0512,0.0518,0.0521,0.0792,0.0793,0,0,0,0,0,0,-0.0058,-0.0024,0.004,0.0049,0.0011,0.0111,0.0124,0.0126,0.0263,0.0283,0.0187,0.0191,0.0389,0.0409,0.0429,0.0484,0.0514,0.0522,0.0528,0.079,0.0792,0.0794,0,0,0,0,0,0,-0.0061,-0.0055,0.0034,0.0014,0.003,0.0111,0.0113,0.0128,0.0159,0.0275,0.0297,0.02,0.039,0.0416,0.0518,0.0494,0.0527,0.0535,0.0788,0.0791,0.0793,0.0604,0,0,0,0,0,0,-0.0064,-0.0057,-0.0067,0.0011,0.0029,0.0064,0.0113,0.0131,0.0164,0.0171,0.0294,0.0316,0.0392,0.0504,0.0527,0.0507,0.0542,0.0786,0.0789,0.0792,0.0608,0.06,0.0592,0,0,0,0,0,-0.0068,-0.0091,-0.0069,-0.0061,0.0012,0.0063,0.0079,0.0141,0.0164,0.017,0.0271,0.0312,0.054,0.0512,0.0539,0.0521,0.0784,0.0788,0.0792,0.0611,0.0601,0.0593,0,0,0,0,0,0,-0.013,-0.0081,-0.0056,-0.0063,-0.001,0.0077,0.0088,0.0131,0.0213,0.0223,0.0335,0.0365,0.045,0.0528,0.0495,0.0619,0.0669,0.0678,0.0523,0.0515,0.0507,0.0459,0.055,0,0,0,0,0,-0.0151,-0.0154,-0.009,-0.0092,-0.0073,0.0006,0.0034,0.0075,0.0156,0.0191,0.0278,0.0387,0.0489,0.0531,0.0637,0.0695,0.0743,0.0709,0.0701,0.0693,0.068,0.0737,0.0731,0.0806,0.0806,0.0806,0,0,-0.0174,-0.0148,-0.0148,-0.0105,-0.0058,-0.0043,0.0024,0.0055,0.0072,0.0206,0.026,0.0367,0.0507,0.0579,0.0622,0.0633,0.0697,0.0698,0.0689,0.068,0.074,0.0732,0.0725,0.0809,0.0808,0.0808,0,0,-0.0226,-0.0201,-0.0221,-0.0189,-0.0137,-0.0084,-0.0083,-0.0005,0.0033,0.0101,0.021,0.0298,0.0442,0.0525,0.0591,0.0609,0.0665,0.065,0.0549,0.0604,0.0596,0.059,0.061,0.0608,0.0629,0.0628,0.0628,0,-0.0256,-0.0272,-0.0217,-0.0226,-0.0203,-0.0114,-0.0121,-0.0072,0.0031,0.0065,0.0095,0.031,0.0411,0.0506,0.051,0.0581,0.0617,0.0555,0.0584,0.0579,0.0576,0.06,0.0599,0.062,0.0621,0.0622,0.0622,0,-0.0321,-0.0329,-0.0337,-0.0317,-0.0286,-0.0277,-0.0205,-0.017,-0.0113,-0.0053,0.0046,0.0184,0.0304,0.0349,0.0431,0.0471,0.0504,0.0568,0.058,0.0555,0.0584,0.0586,0.0607,0.061,0.0613,0.0615,0,0,-0.0383,-0.0386,-0.0385,-0.0382,-0.0334,-0.0304,-0.0288,-0.0228,-0.0198,-0.0123,-0.0079,0.0064,0.013,0.0211,0.0319,0.0356,0.0351,0.043,0.0437,0.0401,0.0442,0.0473,0.048,0.041,0.041,0.0411,0.0457,0,-0.0442,-0.049,-0.0465,-0.0475,-0.0482,-0.0405,-0.0382,-0.0318,-0.0248,-0.0184,-0.0078,0.0024,0.008,0.0146,0.0177,0.0343,0.0355,0.0331,0.0517,0.0522,0.0512,0.0483,0.052,0.0566,0.046,0.0461,0.0461,0,-0.0509,-0.0523,-0.0575,-0.0537,-0.0529,-0.0522,-0.0447,-0.0412,-0.0316,-0.0259,-0.0191,-0.0085,-0.0005,0.0056,0.0201,0.0182,0.0279,0.0377,0.0383,0.048,0.0559,0.059,0.0576,0.0697,0.0466,0.0465,0.0465,0,-0.0571,-0.0583,-0.0625,-0.062,-0.0581,-0.0573,-0.0529,-0.0444,-0.0384,-0.0302,-0.0247,-0.0159,-0.0067,0.0028,0.0199,0.0205,0.036,0.0407,0.0511,0.0514,0.0618,0.063,0.0705,0.0486,0.0486,0.0486,0.0486,0,-0.0646,-0.0662,-0.0659,-0.0679,-0.0676,-0.0624,-0.0584,-0.0536,-0.0438,-0.0357,-0.0289,-0.0205,-0.0065,0.0049,0.0164,0.0331,0.0325,0.0478,0.0529,0.0555,0.056,0.0734,0.0782,0.0488,0.0488,0.0487,0.0487,0,-0.0716,-0.0729,-0.0756,-0.0735,-0.0719,-0.0713,-0.0608,-0.0554,-0.0481,-0.0378,-0.0348,-0.0222,-0.0085,0.0045,0.0239,0.0321,0.0546,0.0534,0.0531,0.058,0.0772,0.0809,0.0936,0.1007,0.0632,0.0633,0.0634,0,-0.0758,-0.0797,-0.0798,-0.0793,-0.0789,-0.0747,-0.0693,-0.0594,-0.0516,-0.0369,-0.0314,-0.0176,-0.0052,0.0183,0.0355,0.0521,0.0621,0.0652,0.0675,0.0769,0.0849,0.0872,0.0924,0.073,0.0732,0.0733,0.0734,0,-0.0815,-0.0831,-0.0848,-0.0846,-0.0815,-0.075,-0.0668,-0.0604,-0.0462,-0.034,-0.019,-0.0094,0.009,0.03,0.0493,0.0596,0.0735,0.0685,0.0805,0.0937,0.0947,0.1046,0.0686,0.0746,0.0745,0.0744,0.0743,0.0743,-0.0831,-0.0861,-0.0877,-0.0866,-0.0824,-0.0733,-0.0631,-0.0498,-0.0329,-0.0093,-0.0086,0.011,0.0266,0.0546,0.067,0.0914,0.0873,0.0987,0.1022,0.1033,0.111,0.0748,0.0858,0.0857,0.0857,0.0856,0.0856,0,-0.0821,-0.0852,-0.0865,-0.0839,-0.0771,-0.0742,-0.0577,-0.0417,-0.0162,0.0006,0.0183,0.0376,0.0635,0.0805,0.1103,0.1246,0.1283,0.13,0.1353,0.1389,0.1101,0.1116,0.126,0.126,0.126,0.126,0.126,0.1259,-0.081,-0.0833,-0.0851,-0.077,-0.0729,-0.0554,-0.0426,-0.019,-0.001,0.0309,0.0474,0.0531,0.0703,0.1203,0.1524,0.155,0.1686,0.1655,0.1722,0.1539,0.1512,0.1487,0.1515,0.174,0.174,0.2014,0.2017,0.2019]}],[{"header":{"parameterUnit":"m.s-1","parameterCategory":2,"la1":30.2991,"la2":30.254,"lo1":-89.0895,"lo2":-89.0444,"dy":0.0017,"dx":0.0017,"nx":28,"ny":28,"refTime":"2023-10-29T21:00:00:Z","depth":"2","parameterNumber":2,"parameterNumberName":"U-component_of_CURRENTS"},"data":[0,0,0,0,0,0,0,0,0,0,0,0,0,0,0,0,0,0,0,0,0,0,0,0,0,0,0,0,0,0,0,0,0,0,0,0,0,0,0,0,0,0,0,0,0,0,0,0,0,0,0,0,0,0,0,0,0,0,-0.183,-0.1831,0,-0.1942,-0.1943,-0.1945,-0.1985,-0.1984,-0.1984,-0.1983,-0.1926,-0.1925,-0.1924,0,0,0,0,0,0,0,0,0,0,0,0,0,-0.1704,-0.1705,-0.183,-0.1831,-0.1833,-0.1941,-0.1943,-0.1945,-0.1985,-0.1984,-0.1984,-0.1983,-0.1926,-0.1925,-0.1924,0,0,0,0,0,0,0,0,0,0,0,0,0,-0.1783,-0.1706,-0.183,-0.1864,-0.1869,-0.1941,-0.1943,-0.1945,-0.1985,-0.1984,-0.1983,-0.1983,-0.1927,-0.1925,-0.1924,-0.1931,0,0,-0.1919,-0.1919,0,0,0,0,0,0,0,0,-0.1778,-0.1787,-0.1858,-0.1862,-0.1867,-0.1947,-0.1878,-0.1932,-0.1985,-0.1943,-0.1983,-0.1982,-0.1917,-0.1916,-0.1944,-0.1928,-0.1926,-0.1919,-0.1918,-0.1918,-0.1917,0,0,0,0,0,0,0,-0.1772,-0.1783,-0.1876,-0.186,-0.1865,-0.1892,-0.1902,-0.1889,-0.1931,-0.1946,-0.1949,-0.1959,-0.1918,-0.1946,-0.1942,-0.1925,-0.1919,-0.1918,-0.1917,-0.1916,-0.1905,-0.1906,0,0,0,0,0,0,-0.1754,-0.1778,-0.1873,-0.1879,-0.1818,-0.1894,-0.1906,-0.1924,-0.1935,-0.1937,-0.196,-0.196,-0.1948,-0.1944,-0.194,-0.1958,-0.1918,-0.1916,-0.1915,-0.1905,-0.1905,-0.1906,0,0,0,0,0,0,-0.1751,-0.1762,-0.1868,-0.1829,-0.1844,-0.1897,-0.1917,-0.1926,-0.1952,-0.1947,-0.1946,-0.1975,-0.1948,-0.1942,-0.1936,-0.1955,-0.1915,-0.1914,-0.1904,-0.1905,-0.1906,-0.1987,0,0,0,0,0,0,-0.1747,-0.176,-0.177,-0.1828,-0.1846,-0.1918,-0.1918,-0.1929,-0.1959,-0.1961,-0.1959,-0.1954,-0.1947,-0.1938,-0.1934,-0.1952,-0.1913,-0.1903,-0.1904,-0.1905,-0.1984,-0.1991,-0.1997,0,0,0,0,0,-0.1742,-0.1747,-0.177,-0.1781,-0.1857,-0.1918,-0.1931,-0.1966,-0.196,-0.1984,-0.1977,-0.1954,-0.1942,-0.1938,-0.1933,-0.1951,-0.1903,-0.1904,-0.1905,-0.1981,-0.199,-0.1997,0,0,0,0,0,0,-0.1689,-0.1753,-0.1779,-0.1802,-0.1863,-0.1924,-0.1942,-0.1966,-0.1986,-0.1974,-0.1964,-0.196,-0.1978,-0.1941,-0.1936,-0.195,-0.1917,-0.1918,-0.1976,-0.1984,-0.1991,-0.1943,-0.1912,0,0,0,0,0,-0.1685,-0.171,-0.1781,-0.1802,-0.1829,-0.1888,-0.1915,-0.1943,-0.1967,-0.1978,-0.1991,-0.198,-0.1983,-0.1962,-0.1975,-0.1961,-0.1902,-0.1967,-0.1974,-0.1979,-0.1937,-0.1883,-0.188,-0.1911,-0.1911,-0.191,0,0,-0.1671,-0.1708,-0.1723,-0.1794,-0.1838,-0.1887,-0.1903,-0.1944,-0.1971,-0.1962,-0.2,-0.2021,-0.1992,-0.201,-0.2008,-0.1972,-0.1946,-0.1981,-0.1987,-0.1939,-0.1884,-0.188,-0.1877,-0.1911,-0.1911,-0.1911,0,0,-0.1661,-0.169,-0.1719,-0.177,-0.1838,-0.1876,-0.1887,-0.1966,-0.1984,-0.2032,-0.2033,-0.2055,-0.2067,-0.2055,-0.2041,-0.2076,-0.2008,-0.2082,-0.2046,-0.1997,-0.1993,-0.1989,-0.1936,-0.1927,-0.2055,-0.2055,-0.2055,0,-0.1642,-0.1685,-0.1737,-0.1784,-0.1797,-0.1869,-0.189,-0.1941,-0.201,-0.1992,-0.2047,-0.2062,-0.2087,-0.2036,-0.208,-0.2091,-0.2037,-0.2027,-0.2004,-0.1999,-0.1993,-0.1939,-0.1927,-0.2059,-0.2059,-0.2058,-0.2058,0,-0.1665,-0.1704,-0.1719,-0.1797,-0.1821,-0.1852,-0.1912,-0.196,-0.1999,-0.2021,-0.2026,-0.2079,-0.2065,-0.2103,-0.2115,-0.2074,-0.2044,-0.2049,-0.1984,-0.1995,-0.1938,-0.1924,-0.2065,-0.2064,-0.2062,-0.2061,0,0,-0.1607,-0.1713,-0.1721,-0.1749,-0.1815,-0.1841,-0.1873,-0.1893,-0.189,-0.1973,-0.1943,-0.2014,-0.2028,-0.2012,-0.2033,-0.2002,-0.1989,-0.2007,-0.2002,-0.1951,-0.1857,-0.1841,-0.1823,-0.1981,-0.1979,-0.1977,-0.1843,0,-0.1607,-0.1684,-0.171,-0.1755,-0.1791,-0.1825,-0.1847,-0.1865,-0.1892,-0.1907,-0.1909,-0.192,-0.1988,-0.2002,-0.1986,-0.1993,-0.195,-0.2023,-0.1853,-0.1847,-0.1829,-0.1806,-0.1712,-0.1583,-0.1829,-0.1827,-0.1825,0,-0.1624,-0.1663,-0.1713,-0.1735,-0.1743,-0.1778,-0.177,-0.1799,-0.1802,-0.1808,-0.1787,-0.1803,-0.1784,-0.1868,-0.1809,-0.1845,-0.185,-0.185,-0.1844,-0.1774,-0.1803,-0.1606,-0.1548,-0.1801,-0.1803,-0.1805,-0.1806,0,-0.1595,-0.165,-0.1678,-0.17,-0.1757,-0.1754,-0.1767,-0.177,-0.1748,-0.174,-0.172,-0.1681,-0.1695,-0.1666,-0.1716,-0.1747,-0.1644,-0.1685,-0.1647,-0.1646,-0.1499,-0.1489,-0.1613,-0.1613,-0.1613,-0.1613,-0.1614,0,-0.1601,-0.1618,-0.1686,-0.1723,-0.1677,-0.1742,-0.1702,-0.1705,-0.1706,-0.1651,-0.1673,-0.1632,-0.165,-0.1613,-0.1639,-0.1593,-0.1575,-0.1607,-0.1597,-0.153,-0.1525,-0.1657,-0.1664,-0.1608,-0.161,-0.1611,-0.1611,0,-0.1587,-0.1661,-0.1656,-0.1693,-0.1688,-0.1658,-0.1631,-0.1624,-0.1646,-0.1584,-0.1573,-0.1569,-0.1531,-0.1525,-0.1491,-0.1501,-0.1459,-0.1449,-0.1374,-0.1358,-0.1507,-0.152,-0.1357,-0.1355,-0.1353,-0.1351,-0.135,0,-0.1591,-0.1624,-0.1596,-0.1561,-0.1574,-0.1554,-0.1543,-0.1567,-0.1554,-0.1539,-0.1504,-0.1471,-0.1428,-0.1361,-0.1352,-0.1306,-0.139,-0.1209,-0.1265,-0.1467,-0.1474,-0.149,-0.1505,-0.1107,-0.1104,-0.1102,-0.11,0,-0.1544,-0.1543,-0.1518,-0.1445,-0.1417,-0.1376,-0.1382,-0.1363,-0.1413,-0.1388,-0.1363,-0.1334,-0.1287,-0.1213,-0.1181,-0.1155,-0.1209,-0.1158,-0.1334,-0.1213,-0.1228,-0.1238,-0.126,-0.1077,-0.1079,-0.1081,-0.1082,-0.1083,-0.1439,-0.1372,-0.1353,-0.1246,-0.1224,-0.1218,-0.1161,-0.1225,-0.1202,-0.1196,-0.122,-0.116,-0.1157,-0.1057,-0.1011,-0.098,-0.1069,-0.1044,-0.1052,-0.1063,-0.1084,-0.1099,-0.0926,-0.0927,-0.0928,-0.0929,-0.093,0,-0.1296,-0.125,-0.1161,-0.1054,-0.1001,-0.1049,-0.105,-0.1025,-0.1005,-0.1058,-0.1043,-0.092,-0.0885,-0.0883,-0.0808,-0.0806,-0.08,-0.0778,-0.0781,-0.0803,-0.0823,-0.0833,-0.0607,-0.0606,-0.0605,-0.0604,0,0,-0.121,-0.1092,-0.1034,-0.086,-0.0825,-0.0752,-0.074,-0.0754,-0.0771,-0.0779,-0.0776,-0.0844,-0.0847,-0.0727,-0.0707,-0.0646,-0.0713,-0.061,-0.0867,-0.0891,-0.0909,-0.0971,-0.1012,0,0,0,0,0]},{"header":{"parameterUnit":"m.s-1","parameterCategory":2,"la1":30.2991,"la2":30.254,"lo1":-89.0895,"lo2":-89.0444,"dy":0.0017,"dx":0.0017,"nx":28,"ny":28,"refTime":"2023-10-29T21:00:00:Z","depth":"2","parameterNumber":3,"parameterNumberName":"V-component_of_CURRENTS"},"data":[0,0,0,0,0,0,0,0,0,0,0,0,0,0,0,0,0,0,0,0,0,0,0,0,0,0,0,0,0,0,0,0,0,0,0,0,0,0,0,0,0,0,0,0,0,0,0,0,0,0,0,0,0,0,0,0,0,0,-0.0175,-0.0173,0,0.002,0.0023,0.0026,0.0147,0.0147,0.0147,0.0148,0.0357,0.0362,0.0367,0,0,0,0,0,0,0,0,0,0,0,0,0,-0.031,-0.0309,-0.0175,-0.0173,-0.0171,0.002,0.0023,0.0026,0.0147,0.0147,0.0147,0.0148,0.0355,0.0361,0.0368,0,0,0,0,0,0,0,0,0,0,0,0,0,-0.0193,-0.0308,-0.0176,-0.0091,-0.0082,0.0019,0.0023,0.0027,0.0147,0.0147,0.0148,0.0148,0.0353,0.0361,0.0368,0.0409,0,0,0.0393,0.0396,0,0,0,0,0,0,0,0,-0.02,-0.0188,-0.0105,-0.0097,-0.0086,0.0056,0.0052,0.0154,0.0147,0.0064,0.0148,0.0148,0.0254,0.027,0.0312,0.0419,0.0428,0.0393,0.0398,0.0402,0.0404,0,0,0,0,0,0,0,-0.0209,-0.0195,-0.0094,-0.0103,-0.0092,-0.0017,-0.0001,0.0073,0.0158,0.0072,0.008,0.0095,0.026,0.0304,0.0318,0.0431,0.0393,0.04,0.0405,0.0408,0.0601,0.0601,0,0,0,0,0,0,-0.0248,-0.0203,-0.01,-0.0088,-0.0148,-0.0016,0.0003,0.0013,0.0157,0.0178,0.0094,0.01,0.029,0.0308,0.0325,0.038,0.0402,0.0409,0.0414,0.0601,0.0601,0.0601,0,0,0,0,0,0,-0.0252,-0.0241,-0.0108,-0.0144,-0.0122,-0.0015,-0.0003,0.0017,0.0064,0.0174,0.0196,0.0119,0.0291,0.0314,0.0397,0.0389,0.0413,0.042,0.06,0.0601,0.0601,0.049,0,0,0,0,0,0,-0.0257,-0.0244,-0.0244,-0.0147,-0.0122,-0.0063,-0.0003,0.002,0.007,0.0079,0.0202,0.0222,0.0293,0.0385,0.0405,0.04,0.0426,0.06,0.06,0.0601,0.0493,0.0486,0.0481,0,0,0,0,0,-0.0262,-0.0269,-0.0245,-0.0232,-0.0128,-0.0064,-0.0044,0.0037,0.007,0.0083,0.0175,0.0219,0.0403,0.0392,0.0415,0.0412,0.0599,0.06,0.0601,0.0496,0.0488,0.0481,0,0,0,0,0,0,-0.0321,-0.0255,-0.0227,-0.0212,-0.0152,-0.0046,-0.0022,0.003,0.0115,0.0126,0.0232,0.0259,0.0335,0.0388,0.0373,0.0471,0.0505,0.051,0.0417,0.041,0.0404,0.0361,0.0433,0,0,0,0,0,-0.0339,-0.0332,-0.0253,-0.0243,-0.0216,-0.0122,-0.0083,-0.0033,0.0052,0.0091,0.0177,0.0269,0.0358,0.0392,0.0482,0.0527,0.0562,0.054,0.0534,0.0528,0.051,0.0564,0.056,0.0604,0.0604,0.0604,0,0,-0.0359,-0.0323,-0.0317,-0.0256,-0.0198,-0.0157,-0.0096,-0.005,-0.0016,0.0098,0.0172,0.0261,0.0372,0.0437,0.0472,0.0475,0.0531,0.0529,0.0523,0.0509,0.0564,0.0559,0.0555,0.0604,0.0604,0.0604,0,0,-0.0391,-0.0364,-0.0362,-0.0317,-0.0251,-0.0193,-0.0188,-0.009,-0.0049,0.0022,0.0124,0.0197,0.0323,0.0396,0.0451,0.046,0.0512,0.0489,0.0407,0.0458,0.0454,0.0451,0.047,0.0469,0.0467,0.0467,0.0466,0,-0.0414,-0.0391,-0.0351,-0.0328,-0.0287,-0.0216,-0.0187,-0.014,-0.0029,0.0001,0.0025,0.0215,0.0301,0.0387,0.0389,0.0443,0.0471,0.0421,0.0446,0.0444,0.0443,0.0463,0.0464,0.0461,0.0462,0.0462,0.0463,0,-0.0428,-0.0406,-0.04,-0.0349,-0.0312,-0.0277,-0.0212,-0.0181,-0.0129,-0.0071,0.0014,0.0126,0.0228,0.0266,0.033,0.037,0.0392,0.0444,0.0453,0.0431,0.0455,0.0457,0.0454,0.0456,0.0457,0.0458,0,0,-0.0474,-0.0419,-0.0414,-0.0391,-0.0314,-0.0287,-0.0255,-0.0194,-0.0174,-0.0102,-0.006,0.0063,0.0106,0.017,0.0255,0.0285,0.0296,0.0339,0.0344,0.0335,0.0383,0.0399,0.0404,0.0351,0.0351,0.0351,0.0394,0,-0.0481,-0.0457,-0.0419,-0.0387,-0.0359,-0.03,-0.0277,-0.0229,-0.0178,-0.0132,-0.0054,0.0029,0.0074,0.0123,0.0153,0.0289,0.0301,0.0277,0.0425,0.0429,0.0429,0.0408,0.0386,0.0423,0.0398,0.0398,0.0398,0,-0.0495,-0.047,-0.045,-0.0401,-0.0385,-0.037,-0.0323,-0.0292,-0.0231,-0.0189,-0.0133,-0.0054,0.0014,0.0056,0.0185,0.0168,0.0248,0.0327,0.0332,0.0386,0.0451,0.0449,0.043,0.0404,0.0403,0.0403,0.0403,0,-0.0549,-0.0492,-0.0482,-0.046,-0.0401,-0.0399,-0.0372,-0.0319,-0.0284,-0.0228,-0.0187,-0.011,-0.0041,0.0045,0.0185,0.019,0.0324,0.0365,0.0442,0.0444,0.0473,0.0476,0.0434,0.0434,0.0434,0.0433,0.0433,0,-0.0571,-0.0563,-0.0516,-0.0512,-0.0496,-0.0455,-0.0443,-0.0405,-0.0345,-0.0296,-0.023,-0.0165,-0.0037,0.0062,0.016,0.0298,0.0301,0.0413,0.0457,0.0433,0.0432,0.0464,0.0467,0.0435,0.0435,0.0434,0.0434,0,-0.0644,-0.061,-0.059,-0.0541,-0.0528,-0.0527,-0.0471,-0.0459,-0.0403,-0.0336,-0.0312,-0.0192,-0.0071,0.0048,0.0216,0.0289,0.0414,0.0464,0.0405,0.0441,0.0496,0.0493,0.0537,0.0538,0.0539,0.0539,0.054,0,-0.0679,-0.0685,-0.0628,-0.0616,-0.0598,-0.0581,-0.0567,-0.0497,-0.046,-0.0339,-0.03,-0.0176,-0.0071,0.014,0.0289,0.0434,0.0448,0.0498,0.0508,0.0469,0.0507,0.0503,0.0499,0.0495,0.0495,0.0496,0.0496,0,-0.0742,-0.0732,-0.0708,-0.0673,-0.0656,-0.0623,-0.0589,-0.0556,-0.0464,-0.0396,-0.0277,-0.019,0.0015,0.0178,0.0356,0.0439,0.0465,0.0506,0.0502,0.0473,0.0434,0.047,0.0467,0.0497,0.0497,0.0497,0.0497,0.0497,-0.0785,-0.078,-0.0752,-0.0707,-0.0689,-0.0659,-0.064,-0.0583,-0.0511,-0.0401,-0.0287,-0.015,0.0025,0.0273,0.0407,0.0514,0.052,0.0545,0.0543,0.0541,0.0529,0.0494,0.0563,0.0563,0.0564,0.0564,0.0564,0,-0.0828,-0.0816,-0.0786,-0.0734,-0.0722,-0.0696,-0.0644,-0.0617,-0.0543,-0.0422,-0.0307,-0.0097,0.0095,0.0259,0.0445,0.0566,0.0552,0.0566,0.0531,0.0529,0.0527,0.0513,0.0545,0.0545,0.0545,0.0545,0,0,-0.0846,-0.0834,-0.0793,-0.0753,-0.0741,-0.0713,-0.0685,-0.0632,-0.0543,-0.0435,-0.0319,-0.0155,0.0088,0.0219,0.0369,0.046,0.0454,0.0456,0.0458,0.0396,0.0393,0.0502,0.0477,0,0,0,0,0]}],[{"header":{"parameterUnit":"m.s-1","parameterCategory":2,"la1":30.2991,"la2":30.254,"lo1":-89.0895,"lo2":-89.0444,"dy":0.0017,"dx":0.0017,"nx":28,"ny":28,"refTime":"2023-10-29T21:00:00:Z","depth":"4","parameterNumber":2,"parameterNumberName":"U-component_of_CURRENTS"},"data":[0,0,0,0,0,0,0,0,0,0,0,0,0,0,0,0,0,0,0,0,0,0,0,0,0,0,0,0,0,0,0,0,0,0,0,0,0,0,0,0,0,0,0,0,0,0,0,0,0,0,0,0,0,0,0,0,0,0,-0.0689,-0.0689,0,-0.0706,-0.0706,-0.0706,-0.0708,-0.0708,-0.0708,-0.0708,-0.0629,-0.0627,-0.0625,0,0,0,0,0,0,0,0,0,0,0,0,0,-0.0654,-0.0654,-0.0689,-0.0689,-0.069,-0.0706,-0.0706,-0.0706,-0.0708,-0.0708,-0.0708,-0.0708,-0.063,-0.0627,-0.0625,0,0,0,0,0,0,0,0,0,0,0,0,0,-0.0667,-0.0654,-0.0689,-0.0695,-0.0696,-0.0706,-0.0706,-0.0706,-0.0708,-0.0708,-0.0708,-0.0708,-0.0631,-0.0628,-0.0624,-0.0602,0,0,-0.0614,-0.0613,0,0,0,0,0,0,0,0,-0.0666,-0.0668,-0.0693,-0.0694,-0.0696,-0.0708,-0.0665,-0.0667,-0.0707,-0.07,-0.0708,-0.0708,-0.0648,-0.0644,-0.0644,-0.0598,-0.0594,-0.0614,-0.0612,-0.0611,-0.061,0,0,0,0,0,0,0,-0.0665,-0.0667,-0.0693,-0.0694,-0.0695,-0.0696,-0.0697,-0.0666,-0.0669,-0.0701,-0.0701,-0.0708,-0.0648,-0.0647,-0.0642,-0.0593,-0.0614,-0.0611,-0.0609,-0.0608,-0.0588,-0.0589,0,0,0,0,0,0,-0.0669,-0.0666,-0.0692,-0.0694,-0.0684,-0.0696,-0.0698,-0.0701,-0.0671,-0.0669,-0.0708,-0.0708,-0.0652,-0.0645,-0.0639,-0.0671,-0.0611,-0.0608,-0.0606,-0.0587,-0.0588,-0.059,0,0,0,0,0,0,-0.0668,-0.0671,-0.0692,-0.0683,-0.0686,-0.0697,-0.07,-0.0701,-0.0711,-0.0679,-0.0674,-0.0718,-0.0652,-0.0643,-0.0626,-0.0665,-0.0606,-0.0603,-0.0585,-0.0587,-0.0589,-0.0695,0,0,0,0,0,0,-0.0667,-0.0671,-0.0678,-0.0683,-0.0687,-0.0707,-0.0701,-0.0702,-0.0716,-0.0716,-0.0685,-0.0678,-0.0652,-0.0632,-0.0623,-0.0659,-0.0601,-0.0583,-0.0586,-0.0588,-0.0689,-0.07,-0.0709,0,0,0,0,0,-0.0666,-0.0673,-0.0678,-0.0681,-0.0695,-0.0708,-0.0709,-0.0716,-0.0716,-0.0724,-0.0707,-0.0679,-0.0643,-0.0629,-0.0619,-0.0656,-0.0582,-0.0585,-0.0588,-0.0685,-0.0698,-0.0709,0,0,0,0,0,0,-0.0661,-0.0674,-0.0679,-0.069,-0.0704,-0.0709,-0.0716,-0.0723,-0.0717,-0.0715,-0.0684,-0.0675,-0.068,-0.0648,-0.0634,-0.0659,-0.0613,-0.0614,-0.069,-0.0702,-0.0712,-0.0742,-0.0598,0,0,0,0,0,-0.0664,-0.0673,-0.0687,-0.0697,-0.0702,-0.0712,-0.072,-0.0726,-0.0723,-0.0721,-0.0706,-0.0689,-0.0684,-0.0676,-0.0658,-0.0659,-0.0642,-0.068,-0.069,-0.0699,-0.0718,-0.0742,-0.0756,-0.06,-0.06,-0.06,0,0,-0.0668,-0.0675,-0.0682,-0.0698,-0.0704,-0.0721,-0.0716,-0.0731,-0.0753,-0.071,-0.0727,-0.0716,-0.0691,-0.0705,-0.0705,-0.0683,-0.0729,-0.0703,-0.0711,-0.0725,-0.0747,-0.0762,-0.0776,-0.0603,-0.0602,-0.0602,0,0,-0.0672,-0.0683,-0.0689,-0.0703,-0.0721,-0.0731,-0.074,-0.0754,-0.0767,-0.0778,-0.0769,-0.0796,-0.0757,-0.0781,-0.0779,-0.0832,-0.078,-0.0812,-0.0888,-0.0911,-0.0925,-0.0937,-0.0913,-0.0921,-0.0819,-0.0819,-0.0819,0,-0.0676,-0.0688,-0.0695,-0.0706,-0.0727,-0.0739,-0.076,-0.0775,-0.0788,-0.0807,-0.0793,-0.0821,-0.0809,-0.086,-0.0889,-0.0861,-0.0834,-0.0845,-0.0927,-0.0938,-0.0948,-0.0921,-0.0929,-0.0825,-0.0824,-0.0824,-0.0823,0,-0.0681,-0.07,-0.0706,-0.0729,-0.0751,-0.0771,-0.0799,-0.0823,-0.0841,-0.0864,-0.0916,-0.0924,-0.0946,-0.0957,-0.0937,-0.1013,-0.0956,-0.0936,-0.09,-0.0971,-0.0936,-0.0943,-0.0833,-0.0831,-0.0829,-0.0828,0,0,-0.0663,-0.0702,-0.0705,-0.0736,-0.0769,-0.0794,-0.0831,-0.0879,-0.0926,-0.0952,-0.1012,-0.1056,-0.1075,-0.1077,-0.1078,-0.1116,-0.1171,-0.1059,-0.1058,-0.1042,-0.1178,-0.109,-0.1087,-0.1153,-0.1155,-0.1157,-0.1116,0,-0.0667,-0.0699,-0.072,-0.0775,-0.08,-0.0838,-0.0884,-0.0933,-0.097,-0.1026,-0.1072,-0.1121,-0.1113,-0.1141,-0.1182,-0.1167,-0.1196,-0.1181,-0.1106,-0.1104,-0.1024,-0.1097,-0.1165,-0.1121,-0.1123,-0.1124,-0.1124,0,-0.0657,-0.069,-0.0731,-0.0821,-0.0837,-0.0879,-0.097,-0.1013,-0.1086,-0.1117,-0.1179,-0.1193,-0.1265,-0.1247,-0.1281,-0.1258,-0.1236,-0.1226,-0.1224,-0.1115,-0.1031,-0.104,-0.1136,-0.1135,-0.1134,-0.1134,-0.1133,0,-0.0637,-0.0704,-0.0745,-0.0769,-0.086,-0.0904,-0.0962,-0.1042,-0.1094,-0.1177,-0.121,-0.1281,-0.1308,-0.132,-0.1292,-0.1284,-0.1299,-0.1279,-0.1181,-0.1172,-0.1214,-0.1202,-0.132,-0.132,-0.132,-0.132,-0.132,0,-0.0623,-0.0665,-0.0748,-0.0773,-0.0865,-0.092,-0.1022,-0.1079,-0.1162,-0.1211,-0.1261,-0.1293,-0.1328,-0.1325,-0.1307,-0.1251,-0.1306,-0.1212,-0.1175,-0.1253,-0.1246,-0.1216,-0.1205,-0.1319,-0.1319,-0.1319,-0.132,0,-0.0585,-0.0629,-0.0699,-0.0805,-0.0852,-0.0918,-0.1055,-0.1113,-0.1187,-0.1243,-0.1265,-0.1305,-0.129,-0.1295,-0.1295,-0.125,-0.1223,-0.1189,-0.1248,-0.121,-0.1071,-0.1066,-0.1086,-0.1083,-0.108,-0.1078,-0.1076,0,-0.0567,-0.0587,-0.0714,-0.0766,-0.0819,-0.0932,-0.1001,-0.1115,-0.1155,-0.1228,-0.1227,-0.1247,-0.1254,-0.1173,-0.1196,-0.1153,-0.1143,-0.1115,-0.114,-0.1096,-0.1057,-0.1056,-0.1053,-0.1072,-0.1072,-0.1071,-0.107,0,-0.0534,-0.0573,-0.0627,-0.073,-0.0815,-0.0918,-0.101,-0.1035,-0.1122,-0.1202,-0.1167,-0.1153,-0.1125,-0.111,-0.1078,-0.1054,-0.1135,-0.1088,-0.1094,-0.1117,-0.1079,-0.1043,-0.1044,-0.1062,-0.1063,-0.1064,-0.1064,0,-0.051,-0.0535,-0.0595,-0.0688,-0.0784,-0.0842,-0.0924,-0.0959,-0.1018,-0.1076,-0.1058,-0.1066,-0.1104,-0.1056,-0.103,-0.0998,-0.0992,-0.0969,-0.098,-0.0991,-0.0981,-0.0921,-0.084,0,0,0,0,0,-0.048,-0.0486,-0.0553,-0.0637,-0.0721,-0.0776,-0.0889,-0.0954,-0.1028,-0.0976,-0.1017,-0.0984,-0.0947,-0.0962,-0.0908,-0.0987,-0.0994,-0.0922,-0.0974,-0.1012,-0.1023,-0.1022,0,0,0,0,0,0,-0.0456,-0.0493,-0.0518,-0.0561,-0.0595,-0.0682,-0.0743,-0.0805,-0.0793,-0.0864,-0.0851,-0.0914,-0.0895,-0.0942,-0.0876,-0.0881,-0.0894,-0.0945,-0.0942,-0.1007,-0.1016,-0.1024,-0.1027,0,0,0,0,0]},{"header":{"parameterUnit":"m.s-1","parameterCategory":2,"la1":30.2991,"la2":30.254,"lo1":-89.0895,"lo2":-89.0444,"dy":0.0017,"dx":0.0017,"nx":28,"ny":28,"refTime":"2023-10-29T21:00:00:Z","depth":"4","parameterNumber":3,"parameterNumberName":"V-component_of_CURRENTS"},"data":[0,0,0,0,0,0,0,0,0,0,0,0,0,0,0,0,0,0,0,0,0,0,0,0,0,0,0,0,0,0,0,0,0,0,0,0,0,0,0,0,0,0,0,0,0,0,0,0,0,0,0,0,0,0,0,0,0,0,-0.0012,-0.0012,0,0.0001,0.0001,0.0001,0.0033,0.0034,0.0034,0.0035,0.0077,0.0077,0.0078,0,0,0,0,0,0,0,0,0,0,0,0,0,-0.0015,-0.0014,-0.0012,-0.0012,-0.0012,0.0001,0.0001,0.0001,0.0033,0.0034,0.0034,0.0035,0.0077,0.0077,0.0078,0,0,0,0,0,0,0,0,0,0,0,0,0,-0.0007,-0.0014,-0.0012,0.0004,0.0006,0.0001,0.0001,0.0002,0.0033,0.0034,0.0035,0.0035,0.0076,0.0077,0.0078,0.0068,0,0,0.0081,0.0081,0,0,0,0,0,0,0,0,-0.0008,-0.0007,0.0002,0.0003,0.0005,0.0015,0.0015,0.0025,0.0033,0.0025,0.0035,0.0036,0.0057,0.006,0.0062,0.007,0.0072,0.0081,0.0082,0.0082,0.0082,0,0,0,0,0,0,0,-0.0008,-0.0007,-0.0005,0.0002,0.0004,0.0009,0.0011,0.0017,0.0038,0.0025,0.0027,0.0026,0.0058,0.0061,0.0064,0.0073,0.0081,0.0082,0.0083,0.0083,0.0076,0.0075,0,0,0,0,0,0,-0.0014,-0.0008,-0.0005,-0.0005,-0.0002,0.0008,0.001,0.0012,0.0038,0.0041,0.0025,0.0027,0.0059,0.0062,0.0065,0.0068,0.0082,0.0083,0.0084,0.0077,0.0076,0.0075,0,0,0,0,0,0,-0.0014,-0.0014,-0.0006,-0.0008,-0.0006,0.0007,0.0009,0.0012,0.0016,0.0037,0.0042,0.0025,0.006,0.0064,0.0059,0.0069,0.0083,0.0084,0.0078,0.0077,0.0076,0.0065,0,0,0,0,0,0,-0.0014,-0.0014,-0.0013,-0.0008,-0.0007,-0.002,0.0008,0.0012,0.0013,0.0016,0.0038,0.0043,0.0061,0.0057,0.006,0.0071,0.0085,0.0079,0.0077,0.0076,0.0066,0.0063,0.0061,0,0,0,0,0,-0.0014,-0.0019,-0.0013,-0.0013,-0.0007,-0.0021,-0.0021,-0.0007,0.0012,0.0002,0.0017,0.0042,0.0051,0.0057,0.006,0.0072,0.0079,0.0078,0.0076,0.0067,0.0064,0.0061,0,0,0,0,0,0,-0.0018,-0.0016,-0.001,-0.0013,-0.0022,-0.0017,-0.0021,-0.0011,-0.0007,0.0001,0.0027,0.0031,0.0032,0.0043,0.0049,0.0063,0.0072,0.0071,0.0064,0.0061,0.0059,0.0073,0.0086,0,0,0,0,0,-0.0021,-0.0023,-0.0027,-0.003,-0.0035,-0.0028,-0.003,-0.0024,-0.002,-0.0016,-0.0005,0.0012,0.0026,0.0036,0.0041,0.0045,0.0075,0.0055,0.0052,0.005,0.0062,0.0124,0.013,0.007,0.007,0.007,0,0,-0.0023,-0.0023,-0.0023,-0.0032,-0.0033,-0.0047,-0.0027,-0.0036,-0.0037,-0.0013,-0.0014,-0.0003,0.0021,0.0026,0.003,0.0041,0.0074,0.0048,0.0047,0.006,0.0123,0.013,0.0136,0.0068,0.0069,0.0069,0,0,-0.0041,-0.0031,-0.0046,-0.0055,-0.0066,-0.0061,-0.0067,-0.0071,-0.006,-0.0071,-0.0043,-0.0023,-0.0025,0.0014,0.0031,0.0018,0.0053,0.0009,0.0021,0.008,0.0087,0.0093,0.0106,0.0114,0.0017,0.0017,0.0017,0,-0.0045,-0.0058,-0.0054,-0.0076,-0.0076,-0.007,-0.0085,-0.0081,-0.0085,-0.0068,-0.0078,-0.004,-0.002,0.0029,0.0022,0.0019,0.0035,0.0034,0.0081,0.0088,0.0094,0.0107,0.0116,0.0016,0.0016,0.0016,0.0016,0,-0.0079,-0.0088,-0.0099,-0.0115,-0.0118,-0.0132,-0.0125,-0.0126,-0.0115,-0.0101,-0.0073,-0.0049,-0.0015,-0.0008,0.0002,0.006,0.0047,0.0066,0.0096,0.01,0.0112,0.0121,0.0015,0.0015,0.0015,0.0016,0,0,-0.0087,-0.0116,-0.0119,-0.0128,-0.0135,-0.0142,-0.0136,-0.0122,-0.0107,-0.0101,-0.0072,-0.0035,-0.0012,0.001,0.0036,0.0089,0.0139,0.0092,0.0096,0.0117,0.0234,0.0201,0.0208,0.0166,0.0168,0.017,0.0213,0,-0.0112,-0.0155,-0.0152,-0.0176,-0.0194,-0.0172,-0.0167,-0.0148,-0.0129,-0.0109,-0.0049,-0.0029,-0.0006,0.0006,0.0068,0.0114,0.0167,0.0123,0.0216,0.0218,0.0201,0.022,0.0177,0.022,0.0222,0.0223,0.0225,0,-0.0147,-0.0165,-0.0199,-0.0199,-0.0201,-0.021,-0.0179,-0.0175,-0.0131,-0.0114,-0.0063,-0.0036,0.0037,0.005,0.0167,0.0132,0.0186,0.0227,0.023,0.0217,0.0205,0.0221,0.0242,0.024,0.0239,0.0238,0.0237,0,-0.0163,-0.0191,-0.0212,-0.0218,-0.0225,-0.0218,-0.0211,-0.0176,-0.0164,-0.0117,-0.0105,-0.002,0.0016,0.0104,0.0181,0.0175,0.0299,0.0306,0.0332,0.0328,0.0351,0.0344,0.0411,0.0411,0.0411,0.0411,0.0411,0,-0.0192,-0.0208,-0.0226,-0.0243,-0.0256,-0.024,-0.0243,-0.022,-0.0186,-0.0165,-0.011,-0.0073,0.0034,0.011,0.0183,0.0275,0.0309,0.0341,0.0352,0.0336,0.0328,0.0355,0.0348,0.0413,0.0412,0.0412,0.0412,0,-0.0217,-0.0233,-0.0263,-0.0271,-0.0277,-0.0286,-0.0285,-0.0283,-0.0241,-0.0212,-0.0199,-0.0108,-0.0012,0.0085,0.0222,0.0272,0.0364,0.0396,0.0342,0.0347,0.0345,0.0337,0.0421,0.042,0.042,0.042,0.0419,0,-0.0238,-0.0261,-0.0294,-0.032,-0.033,-0.0345,-0.0358,-0.0324,-0.0309,-0.0227,-0.0206,-0.0114,-0.0048,0.0106,0.0214,0.0341,0.0369,0.0399,0.0406,0.0352,0.0354,0.0346,0.0338,0.0419,0.0419,0.0419,0.0418,0,-0.027,-0.0285,-0.0312,-0.0367,-0.0395,-0.042,-0.0419,-0.041,-0.035,-0.0313,-0.0213,-0.0125,-0.0017,0.0101,0.0197,0.0297,0.0366,0.0396,0.0397,0.0404,0.035,0.0351,0.0344,0.0417,0.0417,0.0417,0.0417,0,-0.0292,-0.032,-0.0362,-0.0407,-0.0453,-0.0472,-0.0468,-0.0431,-0.0404,-0.029,-0.0258,-0.013,-0.0046,0.0081,0.0175,0.0256,0.0281,0.0303,0.031,0.0313,0.027,0.0186,0.0222,0,0,0,0,0,-0.0306,-0.0344,-0.0397,-0.0451,-0.0498,-0.0511,-0.0499,-0.0478,-0.0412,-0.035,-0.0297,-0.0193,-0.0038,0.0036,0.0111,0.0157,0.0282,0.0246,0.0306,0.0409,0.0411,0.0377,0,0,0,0,0,0,-0.0322,-0.0372,-0.0401,-0.0478,-0.0517,-0.0555,-0.0544,-0.0495,-0.0444,-0.0364,-0.0283,-0.0199,-0.0054,-0.0094,0.0101,0.013,0.0174,0.0331,0.0333,0.0408,0.041,0.0411,0.0376,0,0,0,0,0]}]]